ONEWEB-0192 (48222 NORAD) Tracking and Keplerian Element Data

This shows tracking and keplerian element data for the satellite.

Feedback or suggestion? Click here.




ElementValue
Catalog48222
NameONEWEB-0192
Epoch Orbit180
Epoch Day136.75001157
Epoch Year2021
RAAN305.8181
Inclination87.4064
Eccentricity0.0006944
Argument of Perigee172.2918
Mean Anonmoly57.3617
Mean Motion15.20094453
Decay Rate-0.01409405
L11 48222U 21031N 21136.75001157 -.01409405 00000-0 -72143-1 0 9997
L22 48222 87.4064 305.8181 0006944 172.2918 57.3617 15.20094453 1809

Live tracking and technical data element details for ONEWEB-0192 (NORAD 48222). ONEWEB-0192 can be tracked NOW for your location showing map with azimuth and elevation plus other details from your city location.

Track the satellite on the map from your city or location and see movement details for azimuth, elevation, latitude, longitude, range, height, and movement on the map or in text.







IsCatalogInMostPopularTable: catalog: 48222, numindb: 5
Update: records affected: 1



GetName: 48222 ONEWEB-0192

Hit Count: updated at: Mon, 17 May 2021 15:24:21 GMT